Погода в Цусиме

Япония     37°35′44″N   140°39′58″E
темп.,
°C
ветер,
м/с
пор.,
м/с
влажн.,
%
обл.,
%
осадки,
мм/ч
давл.,
гПа
погр.,
м
20 сентября, пн
пн2000:00+13зюз0080100 0.0 101711
03:00+13зсз1179100 0.0 101710
06:00+13ссз00797 0.0 101811
09:00+20в126220 0.0 1018578
12:00+22всв335644 0.0 10181093
15:00+20в336627 0.0 1018703
18:00+14в21975 0.0 102029
21:00+13юв11940 0.0 102111
21 сентября, вт
вт2100:00+12ююв11940 0.0 102011
03:00+12ю11940 0.0 101911
06:00+12ю11920 0.0 102011
09:00+19ююв23640 0.0 1019757
12:00+22ююв33520 0.0 10161115
15:00+22юв33600 0.0 1015923
18:00+15ююв22960 0.0 101628
21:00+13ююз11940 0.0 101612
22 сентября, ср
ср2200:00+13юз21925 0.0 101517
03:00+14зюз22940 0.0 101418
06:00+15юз22912 0.0 101427
09:00+22ююз26706 0.0 1013647
12:00+25ююз576572 0.0 10111234
15:00+24юз587591 0.1 10101026
18:00+20юз3119116 0.0 1010518
21:00+19зюз259737 0.1 1012161
23 сентября, чт
чт2300:00+18з1194100 0.3 101115
03:00+17з2297100 1.1 101254
06:00+17юз119795 2.4 101314
09:00+22зюз127814 2.4 1013633
12:00+26з12551 0.1 10111370
15:00+25вюв126119 0.4 10111207
18:00+18юз11925 1.5 101311
21:00+18зюз118992 1.6 101411
24 сентября, пт
пт2400:00+17з229311 0.0 101319
03:00+16зсз229566 0.0 101331
06:00+16зсз2292100 0.0 101428
09:00+21з227298 0.0 1014508
12:00+24зюз2456100 0.0 10131137
15:00+22з4866100 0.1 1013900
18:00+17зюз24867 0.0 1015117
21:00+16зюз368864 0.0 1016192